Weather History for Escanaba, MI

Change the Weather History Date:

Friday, March 21, 2014

  Actual Average Record
Temperature  
Mean Temperature 20 °F -  
Max Temperature 55 °F 36 °F 69 °F (2012)
Min Temperature 6 °F 19 °F -7 °F (1988)
Degree Days  
Heating Degree Days 44    
Moisture  
Dew Point 19 °F    
Average Humidity 81    
Maximum Humidity 100    
Minimum Humidity 60    
Precipitation  
Precipitation 0.00 in - - ()
Sea Level Pressure  
Sea Level Pressure 29.91 in    
Wind  
Wind Speed 3 mph (ESE)    
Max Wind Speed 15 mph    
Max Gust Speed 22 mph    
Visibility 8 miles    
Events      
Averages and records for this station are not official NWS values.
T = Trace of Precipitation, MM = Missing Value Source: NWS Daily Summary

Daily Weather History Graph

Daily Weather History Graph

Search for Another Location

Airport:

Trip Planner

Search our weather history database for the weather conditions in past years. The results will help you decide how hot, cold, wet, or windy it might be!

Date:

Astronomy

Mar. 21, 2014 Rise Set
Actual Time 7:49 AM EDT 8:02 PM EDT
Civil Twilight 7:19 AM EDT 8:32 PM EDT
Nautical Twilight 6:44 AM EDT 9:06 PM EDT
Astronomical Twilight 6:09 AM EDT 9:42 PM EDT
Moon 12:33 AM EDT (3/21) 10:27 AM EDT (3/21)
Length of Visible Light 13h 12m
Length of Day
12h 12m
Waning Gibbous, 75% of the Moon is Illuminated
Mar 21
Waning Gibbous
Mar 23
Last Quarter
Mar 30
New
Apr 7
First Quarter
Apr 15
Full

Hourly Weather History & Observations

Time (EDT) Temp. Windchill Dew Point Humidity Pressure Visibility Wind Dir Wind Speed Gust Speed Precip Events Conditions
12:15 AM 21.2 °F - 17.6 °F 86% 30.00 in 10.0 mi Calm Calm - N/A   Clear
12:35 AM 19.4 °F - 15.8 °F 86% 30.00 in 10.0 mi Calm Calm - N/A   Clear
12:55 AM 19.4 °F - 15.8 °F 86% 30.00 in 10.0 mi Calm Calm - N/A   Clear
1:15 AM 19.4 °F - 15.8 °F 86% 30.00 in 10.0 mi Calm Calm - N/A   Clear
1:35 AM 21.2 °F - 17.6 °F 86% 30.00 in 10.0 mi Calm Calm - N/A   Clear
1:55 AM 19.4 °F - 15.8 °F 86% 30.00 in 10.0 mi Calm Calm - N/A   Clear
2:15 AM 15.8 °F - 12.2 °F 86% 30.00 in 10.0 mi Calm Calm - N/A   Clear
2:35 AM 15.8 °F - 14.0 °F 93% 30.00 in 10.0 mi Calm Calm - N/A   Clear
2:55 AM 15.8 °F - 12.2 °F 86% 30.00 in 10.0 mi Calm Calm - N/A   Clear
3:15 AM 15.8 °F - 12.2 °F 86% 29.97 in 10.0 mi Calm Calm - N/A   Clear
3:35 AM 15.8 °F - 14.0 °F 93% 29.99 in 10.0 mi Calm Calm - N/A   Clear
3:55 AM 12.2 °F - 6.8 °F 79% 29.98 in 10.0 mi Calm Calm - N/A   Clear
4:15 AM 12.2 °F - 8.6 °F 85% 29.98 in 10.0 mi Calm Calm - N/A   Clear
4:35 AM 12.2 °F - 8.6 °F 85% 29.97 in 10.0 mi Calm Calm - N/A   Clear
4:55 AM 12.2 °F - 10.4 °F 92% 29.97 in 6.0 mi Calm Calm - N/A   Clear
5:15 AM 12.2 °F - 8.6 °F 85% 29.97 in 5.0 mi Calm Calm - N/A   Clear
5:35 AM 12.2 °F - 8.6 °F 85% 29.97 in 6.0 mi Calm Calm - N/A   Clear
5:55 AM 12.2 °F - 8.6 °F 85% 29.96 in 1.8 mi Calm Calm - N/A   Clear
6:15 AM 12.2 °F - 8.6 °F 85% 29.97 in 3.0 mi Calm Calm - N/A   Clear
6:35 AM 10.4 °F - 5.0 °F 79% 29.96 in 10.0 mi Calm Calm - N/A   Clear
6:55 AM 10.4 °F - 3.2 °F 73% 29.96 in 10.0 mi Calm Calm - N/A   Clear
7:15 AM 6.8 °F - 1.4 °F 79% 29.96 in 10.0 mi Calm Calm - N/A   Clear
7:35 AM 6.8 °F - 6.8 °F 100% 29.96 in 8.0 mi Calm Calm - N/A   Clear
7:55 AM 6.8 °F - 3.2 °F 85% 29.96 in 9.0 mi Calm Calm - N/A   Clear
8:15 AM 6.8 °F - 1.4 °F 79% 29.97 in 9.0 mi Calm Calm - N/A   Clear
8:35 AM 8.6 °F - 5.0 °F 85% 29.97 in 3.0 mi Calm Calm - N/A   Clear
8:55 AM 8.6 °F - 6.8 °F 92% 29.96 in 8.0 mi Calm Calm - N/A   Scattered Clouds
9:15 AM 12.2 °F - 10.4 °F 92% 29.96 in 1.0 mi Calm Calm - N/A   Overcast
9:35 AM 17.6 °F - 15.8 °F 93% 29.97 in 0.2 mi Calm Calm - N/A   Overcast
9:55 AM 19.4 °F - 17.6 °F 93% 29.98 in 0.2 mi Calm Calm - N/A   Overcast
10:15 AM 21.2 °F - 19.4 °F 93% 29.98 in 0.2 mi Calm Calm - N/A   Overcast
10:35 AM 21.2 °F 16.4 °F 19.4 °F 93% 29.98 in 0.2 mi ESE 3.5 mph - N/A   Overcast
10:55 AM 23.0 °F 18.4 °F 21.2 °F 93% 29.98 in 6.0 mi East 3.5 mph - N/A   Partly Cloudy
11:15 AM 26.6 °F - 24.8 °F 93% 29.97 in 10.0 mi Calm Calm - N/A   Clear
11:35 AM 28.4 °F 19.7 °F 26.6 °F 93% 29.97 in 9.0 mi South 9.2 mph 16.1 mph N/A   Clear
11:55 AM 30.2 °F 21.9 °F 26.6 °F 86% 29.95 in 10.0 mi SSE 9.2 mph - N/A   Clear
12:15 PM 30.2 °F 22.6 °F 24.8 °F 80% 29.95 in 9.0 mi SE 8.1 mph - N/A   Clear
12:35 PM 30.2 °F 23.4 °F 24.8 °F 80% 29.94 in 8.0 mi SSE 6.9 mph - N/A   Clear
12:55 PM 30.2 °F 22.6 °F 24.8 °F 80% 29.93 in 9.0 mi SE 8.1 mph - N/A   Clear
1:15 PM 32.0 °F 24.2 °F 23.0 °F 69% 29.92 in 10.0 mi SSE 9.2 mph - N/A   Clear
1:35 PM 32.0 °F 23.6 °F 24.8 °F 75% 29.90 in 10.0 mi SE 10.4 mph - N/A   Clear
1:55 PM 33.8 °F 25.8 °F 26.6 °F 75% 29.89 in 10.0 mi SSE 10.4 mph 17.3 mph N/A   Clear
2:15 PM 33.8 °F 23.9 °F 24.8 °F 70% 29.89 in 10.0 mi South 15.0 mph 21.9 mph N/A   Unknown
2:35 PM 33.8 °F 23.9 °F 24.8 °F 70% 29.88 in 10.0 mi South 15.0 mph 21.9 mph N/A   Overcast
2:55 PM 33.8 °F 24.3 °F 24.8 °F 70% 29.87 in 10.0 mi South 13.8 mph - N/A   Overcast
3:15 PM 33.8 °F 24.3 °F 24.8 °F 70% 29.86 in 10.0 mi SSE 13.8 mph 20.7 mph N/A   Overcast
3:35 PM 33.8 °F 25.3 °F 24.8 °F 70% 29.86 in 10.0 mi SSE 11.5 mph 18.4 mph N/A   Overcast
3:55 PM 33.8 °F 25.3 °F 24.8 °F 70% 29.85 in 10.0 mi SSE 11.5 mph - N/A   Overcast
4:15 PM 33.8 °F 25.3 °F 24.8 °F 70% 29.85 in 10.0 mi SSE 11.5 mph - N/A   Overcast
4:35 PM 35.6 °F 28.6 °F 23.0 °F 60% 29.85 in 10.0 mi South 9.2 mph - N/A   Overcast
4:55 PM 35.6 °F 29.2 °F 24.8 °F 65% 29.84 in 10.0 mi SSE 8.1 mph - N/A   Overcast
5:15 PM 33.8 °F 27.7 °F 24.8 °F 70% 29.83 in 10.0 mi SSE 6.9 mph - N/A   Mostly Cloudy
5:35 PM 33.8 °F 26.4 °F 24.8 °F 70% 29.83 in 10.0 mi ESE 9.2 mph - N/A   Overcast
5:55 PM 33.8 °F 27.0 °F 24.8 °F 70% 29.82 in 10.0 mi ESE 8.1 mph - N/A   Overcast
6:15 PM 32.0 °F 24.2 °F 26.6 °F 80% 29.82 in 10.0 mi East 9.2 mph - N/A   Overcast
6:35 PM 33.8 °F 27.0 °F 24.8 °F 70% 29.81 in 10.0 mi East 8.1 mph - N/A   Overcast
6:55 PM 33.8 °F 27.0 °F 24.8 °F 70% 29.81 in 10.0 mi East 8.1 mph - N/A   Overcast
7:15 PM 33.8 °F 27.7 °F 23.0 °F 65% 29.81 in 10.0 mi East 6.9 mph - N/A   Overcast
7:35 PM 33.8 °F 27.7 °F 21.2 °F 60% 29.81 in 10.0 mi ENE 6.9 mph - N/A   Overcast
7:55 PM 33.8 °F 29.6 °F 23.0 °F 65% 29.81 in 10.0 mi East 4.6 mph - N/A   Overcast
8:15 PM 33.8 °F 28.6 °F 24.8 °F 70% 29.80 in 10.0 mi East 5.8 mph - N/A   Overcast
8:35 PM 32.0 °F 24.2 °F 24.8 °F 75% 29.81 in 5.0 mi East 9.2 mph - N/A   Overcast
8:55 PM 30.2 °F 21.9 °F 24.8 °F 80% 29.80 in 5.0 mi East 9.2 mph - N/A   Overcast
9:15 PM 30.2 °F 22.6 °F 26.6 °F 86% 29.80 in 4.0 mi ENE 8.1 mph - N/A   Overcast
9:35 PM 30.2 °F 25.4 °F 26.6 °F 86% 29.81 in 3.0 mi ENE 4.6 mph - N/A   Overcast
9:55 PM 30.2 °F 25.4 °F 28.4 °F 93% 29.81 in 1.8 mi ENE 4.6 mph - N/A   Overcast
10:15 PM 30.2 °F 24.3 °F 26.6 °F 86% 29.80 in 4.0 mi ENE 5.8 mph - N/A   Mostly Cloudy
10:35 PM 30.2 °F 23.4 °F 26.6 °F 86% 29.80 in 10.0 mi East 6.9 mph - N/A   Overcast
10:55 PM 28.4 °F 19.1 °F 26.6 °F 93% 29.80 in 10.0 mi East 10.4 mph - N/A   Overcast
11:15 PM 28.4 °F 22.2 °F 24.8 °F 86% 29.80 in 10.0 mi ENE 5.8 mph - N/A   Overcast
11:35 PM 28.4 °F 23.3 °F 24.8 °F 86% 29.81 in 10.0 mi ENE 4.6 mph - N/A   Mostly Cloudy
11:55 PM 28.4 °F 24.6 °F 26.6 °F 93% 29.81 in 10.0 mi NNE 3.5 mph - N/A   Mostly Cloudy